Regional Weather Roundup
Issued by NWS Glasgow, MT

Home | Current Version | Previous Version | Text Only | Print | Product List | Glossary On
Versions: 1 2 3 4 5 6 7 8 9 10 11 12 13 14 15 16 17 18 19 20 21 22 23 24 25 26 27 28 29 30 31 32 33 34 35 36 37 38 39 40 41 42 43 44 45 46 47 48 49 50
000
ASUS45 KGGW 032115
RWRGGW
HOURLY REGIONAL WEATHER ROUNDUP FOR NORTHEAST MONTANA
NATIONAL WEATHER SERVICE GLASGOW MONTANA
300 PM MDT MON AUG 03 2015

NOTE: "FAIR" INDICATES FEW OR NO CLOUDS BELOW 12,000 FEET WITH NO
SIGNIFICANT WEATHER AND/OR OBSTRUCTIONS TO VISISBILITY.

NORTHEAST MONTANA


CITY           SKY/WX    TMP DP  RH WIND       PRES   REMARKS
GLASGOW        SUNNY     87  47  24 E14       29.93F
PLENTYWOOD       N/A     80  40  23 E3          N/A
WOLF POINT     SUNNY     88  47  24 VRB5      29.95F
JORDAN           N/A     90  45  21 E14G20    29.92F
WINNETT          N/A     91  37  15 E8G16       N/A
SIDNEY         SUNNY    N/A N/A N/A N9        29.96F
GLENDIVE         N/A    N/A N/A N/A MISG        N/A
MALTA            N/A     89  51  27 E8G20       N/A
SCOBEY           N/A     81  49  32 SE6       29.98F

FORT PECK REPORTS


CITY           SKY/WX    TMP DP  RH WIND       PRES   REMARKS
FORT PECK        N/A     86  53  32 E12         N/A
THE PINES        N/A     86  51  29 NE9         N/A

SOUTHEAST MONTANA


CITY           SKY/WX    TMP DP  RH WIND       PRES   REMARKS
BILLINGS       PTSUNNY   90  46  21 SE12      29.93F
MILES CITY     SUNNY     91  47  21 S12       29.91F
BAKER          SUNNY     86  47  25 SE10      29.99F
LIVINGSTON     PTSUNNY   86  44  23 E14       29.96F

CENTRAL MONTANA


CITY           SKY/WX    TMP DP  RH WIND       PRES   REMARKS
HAVRE          MOSUNNY   92  52  25 SE18G26   29.83F
LEWISTOWN      SUNNY     89  45  21 E18G28    29.94F
GREAT FALLS    SUNNY     91  45  20 E6        29.86F
CUT BANK       MOSUNNY   91  40  16 SE10      29.87F
HELENA         MOSUNNY   93  48  21 N9        29.85F
BUTTE          MOSUNNY   86  39  19 SE8       29.98F
BOZEMAN        PTSUNNY   84  50  30 CALM      29.93F

WESTERN MONTANA


CITY           SKY/WX    TMP DP  RH WIND       PRES   REMARKS
MISSOULA       PTSUNNY   91  38  15 W3        29.80F
KALISPELL      NOT AVBL

NORTH DAKOTA


CITY           SKY/WX    TMP DP  RH WIND       PRES   REMARKS
WILLISTON      SUNNY     84  43  23 N8        29.98F
DICKINSON      SUNNY     81  48  31 VRB3      29.99F
MINOT          SUNNY     78  42  27 SW5       29.98F
BISMARCK       SUNNY     82  47  29 N12       29.98F

SOUTHERN SASKATCHEWAN


CITY           SKY/WX    TMP DP  RH WIND       PRES   REMARKS
REGINA         MOSUNNY   81  52  36 NW3       30.00F
ESTEVAN        PTSUNNY   79  48  34 W5        30.00S
SWIFT CURRENT  SUNNY     81  55  41 SE13G24   29.96F




USA.gov is the U.S. government's official web portal to all federal, state and local government web resources and services.